This demonstration page uses our WeatherBlox Daily Observations layout. Learn more.

Left ArrowRight Arrow

39.08367, -84.50855

Hourly Observations for July 15, 2017

Temp ( °F °C ) Dew Point ( °F °C ) Humidity (%) Winds ( mph kmh ) Pressure ( in mb ) Visibility ( mi km ) Precip ( " mm )
12:53 am 00:53 Mostly Clear 72 22.2 64 17.8 76 76 N 6 9 30.1 1019 10 16.0934 N/A
1:53 am 01:53 Clear 69 20.6 63 17.2 81 81 NNE 3 6 30.1 1019 10 16.0934 N/A
2:53 am 02:53 Clear 68 20 61 16.1 78 78 N 7 11 30.1 1019 10 16.0934 N/A
3:53 am 03:53 Clear 65 18.3 61 16.1 87 87 N 5 7 30.1 1019 10 16.0934 N/A
4:53 am 04:53 Clear 63 17.2 61 16.1 93 93 N N/A 30.11 1020 10 16.0934 N/A
5:53 am 05:53 Clear 61 16.1 61 16.1 100 100 N N/A 30.11 1020 10 16.0934 N/A
6:53 am 06:53 Sunny 60 15.6 60 15.6 100 100 N N/A 30.12 1020 10 16.0934 N/A
7:53 am 07:53 Sunny 65 18.3 63 17.2 93 93 N N/A 30.13 1020 10 16.0934 N/A
8:53 am 08:53 Sunny 69 20.6 62 16.7 78 78 N 5 7 30.13 1020 10 16.0934 N/A
9:53 am 09:53 Sunny 70 21.1 64 17.8 82 82 N N/A 30.13 1020 10 16.0934 N/A
10:53 am 10:53 Partly Cloudy 73 22.8 64 17.8 74 74 N N/A 30.13 1020 10 16.0934 N/A
11:53 am 11:53 Partly Cloudy 75 23.9 64 17.8 69 69 N N/A 30.12 1020 10 16.0934 N/A
12:53 pm 12:53 Mostly Cloudy 76 24.4 64 17.8 67 67 N N/A 30.11 1020 10 16.0934 N/A
1:53 pm 13:53 Mostly Cloudy 79 26.1 66 18.9 65 65 SSE 3 6 30.11 1020 10 16.0934 N/A
2:53 pm 14:53 Mostly Sunny 80 26.7 65 18.3 60 60 NNE 9 15 30.08 1019 10 16.0934 N/A
3:53 pm 15:53 Mostly Sunny 81 27.2 63 17.2 54 54 VRB 3 6 30.06 1018 10 16.0934 N/A
4:53 pm 16:53 Mostly Sunny 82 27.8 64 17.8 55 55 E 6 9 30.04 1017 10 16.0934 N/A
5:53 pm 17:53 Mostly Sunny 82 27.8 63 17.2 53 53 N N/A 30.03 1017 10 16.0934 N/A
6:53 pm 18:53 Mostly Sunny 81 27.2 66 18.9 61 61 ENE 6 9 30.01 1016 10 16.0934 N/A
7:53 pm 19:53 Mostly Sunny 80 26.7 66 18.9 62 62 ESE 3 6 30.01 1016 10 16.0934 N/A
8:53 pm 20:53 Mostly Sunny 77 25 67 19.4 71 71 N N/A 30.02 1017 10 16.0934 N/A
9:53 pm 21:53 Clear 71 21.7 67 19.4 87 87 N N/A 30.02 1017 10 16.0934 N/A
10:53 pm 22:53 Clear 69 20.6 67 19.4 93 93 N N/A 30.02 1017 10 16.0934 N/A
11:53 pm 23:53 Clear 66 18.9 65 18.3 96 96 N N/A 30.03 1017 10 16.0934 N/A

Powered by AerisWeather